Home   Weather   Martigny   Past weeks

Flag for Switzerland Past Weather in Martigny, Valais, Switzerland — Yesterday and Last 2 Weeks

Now
36 °F

Chilly.


Feels Like: 36 °F
Forecast: 38 / 54 °F
Wind: 1 mph from South

Location: Sion

Current Time: Dec 4, 2016 at 1:17:15 pm

Latest Report: Dec 4, 2016 at 12:00 pm


Visibility: N/A

Pressure: 30.32 "Hg

Humidity: 75%

Dew Point: 29 °F

Location of MartignyLocation

Past Weather in Martigny — Graph

°F

Martigny Temperature Yesterday

Maximum temperature yesterday: 38 °F (at 3:00 pm)
Minimum temperature yesterday: 24 °F (at 7:00 am)
Average temperature yesterday: 30 °F

High & Low Weather Summary for the Past Weeks

 TemperatureHumidityPressure
High64 °F (Nov 24, 2:00 pm)95% (Nov 26, 10:00 pm)30.68 "Hg (Nov 26, 10:00 pm)
Low24 °F (Dec 3, 7:00 am)38% (Nov 21, 7:00 pm)29.68 "Hg (Nov 21, 3:00 pm)
Average42 °F72%30.10 "Hg
* Reported Nov 19 12:00 pm — Dec 4 12:00 pm, Martigny, Weather by CustomWeather, © 2016

Note: Actual official high and low records may vary slightly from our data, if they occured in-between our weather recording intervals... More about our weather records

Advertising

Martigny Weather History for the Previous 24 Hours

Scroll right to see more
 ConditionsComfort  
Time TempWeatherWind HumidityBarometerVisibility
12:00 pm
Sun, Dec 4
36 °FChilly.1 mph75%30.32 "HgN/A
11:00 am28 °FChilly.No wind86%30.37 "HgN/A
10:00 am26 °FSunny.1 mph88%30.38 "Hg19 mi
9:00 am25 °FChilly.1 mph89%30.38 "HgN/A
8:00 am25 °FChilly.1 mph91%30.36 "HgN/A
7:00 am26 °FClear.3 mph90%30.34 "Hg16 mi
6:00 am26 °FChilly.3 mph90%30.33 "HgN/A
5:00 am27 °FChilly.5 mph89%30.33 "HgN/A
4:00 am28 °FChilly.5 mph88%30.32 "HgN/A
3:00 am27 °FChilly.3 mph90%30.32 "HgN/A
2:00 am27 °FChilly.2 mph91%30.32 "HgN/A
1:00 am29 °FPassing clouds.6 mph89%30.31 "Hg19 mi
12:00 am29 °FChilly.3 mph89%30.30 "HgN/A
11:00 pm
Sat, Dec 3
27 °FChilly.3 mph91%30.30 "HgN/A
10:00 pm29 °FPassing clouds.2 mph87%30.29 "Hg16 mi
9:00 pm28 °FChilly.1 mph89%30.28 "HgN/A
8:00 pm29 °FChilly.No wind91%30.27 "HgN/A
7:00 pm31 °FPassing clouds.1 mph89%30.23 "Hg16 mi
6:00 pm34 °FChilly.1 mph79%30.21 "HgN/A
5:00 pm35 °FChilly.2 mph77%30.18 "HgN/A
4:00 pm36 °FScattered clouds.5 mph74%30.15 "Hg16 mi
3:00 pm38 °FChilly.5 mph68%30.13 "HgN/A
2:00 pm38 °FChilly.6 mph67%30.12 "HgN/A
1:00 pm36 °FPassing clouds.5 mph72%30.14 "Hg16 mi
Weather by CustomWeather, © 2016

See weather overviewHow to use our weather pages